Weather History for London, United Kingdom

Change the Weather History Date:

Tuesday, January 3, 2012

  Actual Average Record
Temperature  
Mean Temperature 48 °F -  
Max Temperature 54 °F 45 °F 55 °F (1998)
Min Temperature 42 °F 35 °F 24 °F (2009)
Degree Days  
Heating Degree Days 17    
Moisture  
Dew Point 41 °F    
Average Humidity 78    
Maximum Humidity 94    
Minimum Humidity 59    
Precipitation  
Precipitation 0.31 in - - ()
Sea Level Pressure  
Sea Level Pressure 29.62 in    
Wind  
Wind Speed 18 mph ()    
Max Wind Speed 31 mph    
Max Gust Speed 43 mph    
Visibility 6.7 miles    
Events Rain    
Averages and records for this station are not official NWS values.
T = Trace of Precipitation, MM = Missing Value Source: Averaged Metar Reports

Daily Weather History Graph

Daily Weather History Graph

Search for Another Location

Airport:

Trip Planner

Search our weather history database for the weather conditions in past years. The results will help you decide how hot, cold, wet, or windy it might be!

Date:

Astronomy

Jan. 03, 2012 Rise Set
Actual Time 8:07 AM GMT 4:05 PM GMT
Civil Twilight 7:27 AM GMT 4:45 PM GMT
Nautical Twilight 6:44 AM GMT 5:27 PM GMT
Astronomical Twilight 6:04 AM GMT 6:08 PM GMT
Moon 11:57 AM GMT (1/3) 2:29 AM GMT (1/3)
Length of Visible Light 9h 17m
Length of Day
7h 58m
Waxing Gibbous, 70% of the Moon is Illuminated
Jan 3
Waxing Gibbous
Jan 9
Full
Jan 16
Last Quarter
Jan 23
New
Jan 31
First Quarter

Hourly Weather History & Observations

Time (GMT) Temp. Windchill Dew Point Humidity Pressure Visibility Wind Dir Wind Speed Gust Speed Precip Events Conditions
12:20 AM 42.8 °F 38.0 °F 39.2 °F 87% 29.83 in 6.2 mi South 8.1 mph - N/A   Partly Cloudy
12:50 AM 44.6 °F 39.7 °F 39.2 °F 81% 29.83 in - SSW 9.2 mph - N/A   Clear
1:20 AM 46.4 °F 41.5 °F 41.0 °F 81% 29.80 in 6.2 mi SSW 10.4 mph - N/A   Unknown
1:50 AM 46.4 °F 40.7 °F 41.0 °F 81% 29.77 in 6.2 mi SSW 12.7 mph - N/A Rain Light Rain
2:20 AM 46.4 °F 39.5 °F 42.8 °F 87% 29.77 in 6.2 mi SSW 17.3 mph - N/A Rain Light Rain
2:50 AM 48 °F - 44 °F 82% 29.73 in 9 mi SSW 18.4 mph - - Rain Light Rain
2:50 AM 48.2 °F - 42.8 °F 82% 29.71 in 6.2 mi SSW 17.3 mph - N/A Rain Light Rain
3:20 AM 48.2 °F - 44.6 °F 87% 29.68 in 6.2 mi SSW 17.3 mph 28.8 mph N/A Rain Rain
3:50 AM 48.2 °F - 44.6 °F 87% 29.65 in 6.2 mi SSW 20.7 mph - N/A Rain Light Rain
4:20 AM 48.2 °F - 46.4 °F 93% 29.59 in 3.7 mi SSW 19.6 mph - N/A Rain Rain
4:50 AM 48.2 °F - 46.4 °F 93% 29.56 in 3.1 mi SSW 19.6 mph 32.2 mph N/A Rain Rain
5:20 AM 50.0 °F - 48.2 °F 94% 29.56 in 5.0 mi SW 23.0 mph - N/A Rain Light Rain
5:50 AM 52 °F - 49 °F 84% 29.55 in 6 mi SW 25.3 mph - - Rain Rain
5:50 AM 51.8 °F - 48.2 °F 88% 29.53 in 6.2 mi SW 25.3 mph 38.0 mph N/A Rain Light Rain
6:20 AM 51.8 °F - 48.2 °F 88% 29.50 in 6.2 mi SW 27.6 mph 39.1 mph N/A   Mostly Cloudy
6:50 AM 53.6 °F - 48.2 °F 82% 29.50 in 6.2 mi SW 27.6 mph 39.1 mph N/A   Mostly Cloudy
7:20 AM 53.6 °F - 48.2 °F 82% 29.50 in 5.6 mi SW 27.6 mph - N/A Rain Light Rain
7:50 AM 53.6 °F - 48.2 °F 82% 29.47 in 6.2 mi SW 26.5 mph 38.0 mph N/A   Mostly Cloudy
8:20 AM 53.6 °F - 48.2 °F 82% 29.47 in 6.2 mi SW 28.8 mph 40.3 mph N/A Rain Light Rain
8:50 AM 53.6 °F - 50.0 °F 88% 29.44 in 6.2 mi SW 25.3 mph 41.4 mph N/A   Light Drizzle
9:20 AM 53.6 °F - 50.0 °F 88% 29.44 in 4.3 mi SW 27.6 mph 42.6 mph N/A Rain Light Rain
9:50 AM 53.6 °F - 50.0 °F 88% 29.42 in 6.2 mi SW 27.6 mph 40.3 mph N/A Rain Light Rain
10:20 AM 53.6 °F - 50.0 °F 88% 29.42 in 5.0 mi SW 25.3 mph 40.3 mph N/A Rain Light Rain
10:50 AM 53.6 °F - 50.0 °F 88% 29.39 in 3.7 mi SW 27.6 mph 40.3 mph N/A Rain Light Rain
11:20 AM 53.6 °F - 50.0 °F 88% 29.36 in 3.1 mi SW 29.9 mph 41.4 mph N/A Rain Rain
11:50 AM 48 °F - 44 °F 82% 29.46 in 1 mi West 31.1 mph - - Rain Heavy Rain
12:20 PM 46.4 °F 39.0 °F 42.8 °F 87% 29.47 in 5.0 mi WNW 19.6 mph - N/A Rain Rain
12:50 PM 46.4 °F 39.0 °F 41.0 °F 81% 29.44 in 6.2 mi WSW 19.6 mph - N/A   Scattered Clouds
1:20 PM 48.2 °F - 41.0 °F 76% 29.47 in 6.2 mi West 20.7 mph - N/A   Partly Cloudy
1:50 PM 48.2 °F - 41.0 °F 76% 29.47 in 6.2 mi West 21.9 mph - N/A   Mostly Cloudy
2:20 PM 48.2 °F - 41.0 °F 76% 29.50 in 6.2 mi West 27.6 mph 42.6 mph N/A   Scattered Clouds
2:50 PM 49 °F - 41 °F 67% 29.55 in 18 mi WSW 25.3 mph - -  
2:50 PM 48.2 °F - 41.0 °F 76% 29.53 in 6.2 mi West 24.2 mph - N/A   Partly Cloudy
3:20 PM 48.2 °F - 39.2 °F 71% 29.56 in 6.2 mi West 25.3 mph - N/A   Scattered Clouds
3:50 PM 44.6 °F 34.7 °F 39.2 °F 81% 29.62 in 6.2 mi West 29.9 mph 41.4 mph N/A Rain Light Rain
4:20 PM 44.6 °F 36.9 °F 37.4 °F 76% 29.62 in 6.2 mi West 18.4 mph - N/A   Partly Cloudy
4:50 PM 44.6 °F 35.9 °F 35.6 °F 71% 29.65 in - West 23.0 mph 35.7 mph N/A   Clear
5:20 PM 44.6 °F 35.7 °F 33.8 °F 66% 29.68 in - West 24.2 mph - N/A   Clear
5:50 PM 44 °F - 35 °F 59% 29.70 in 19 mi West 21.9 mph - -  
5:50 PM 44.6 °F 35.9 °F 33.8 °F 66% 29.71 in - West 23.0 mph - N/A   Clear
6:20 PM 42.8 °F 34.0 °F 33.8 °F 70% 29.71 in - West 20.7 mph - N/A   Clear
6:50 PM 42.8 °F 33.5 °F 33.8 °F 70% 29.74 in - West 23.0 mph - N/A   Clear
7:20 PM 42.8 °F 35.1 °F 33.8 °F 70% 29.74 in - West 16.1 mph - N/A   Clear
7:50 PM 44.6 °F 36.9 °F 33.8 °F 66% 29.74 in - West 18.4 mph - N/A   Clear
8:20 PM 42.8 °F 34.5 °F 33.8 °F 70% 29.77 in - WSW 18.4 mph - N/A   Clear
8:50 PM 43 °F - 34 °F 61% 29.78 in 14 mi WSW 15.0 mph - -  
8:50 PM 42.8 °F 35.4 °F 33.8 °F 70% 29.77 in - WSW 15.0 mph - N/A   Clear
9:20 PM 42.8 °F 36.6 °F 33.8 °F 70% 29.77 in - SW 11.5 mph - N/A   Clear
9:50 PM 42.8 °F 35.4 °F 33.8 °F 70% 29.77 in - WSW 15.0 mph - N/A   Clear
10:20 PM 42.8 °F 34.5 °F 33.8 °F 70% 29.77 in - WSW 18.4 mph - N/A   Clear
10:50 PM 42.8 °F 34.0 °F 33.8 °F 70% 29.77 in - WSW 20.7 mph - N/A   Clear
11:20 PM 42.8 °F 33.3 °F 33.8 °F 70% 29.77 in 6.2 mi WSW 24.2 mph - N/A   Partly Cloudy
11:50 PM 44 °F - 35 °F 62% 29.81 in 14 mi West 18.4 mph - -   Scattered Clouds
11:50 PM 44.6 °F 36.9 °F 33.8 °F 66% 29.80 in 6.2 mi West 18.4 mph - N/A   Partly Cloudy